Back to catalog

METEOR 2-5 DEB

AlivePO
NORAD 39606·DEBRIS·🇷🇺 Russia

Launched Oct 31, 1979 from Plesetsk Cosmodrome

Loading…

Next Passes (next 24 hours)

TLE

StaleSource: Space-Track

Epoch: Aug 26, 2026, 03:23 UTC

1 39606U 79095CH  26238.14133603  .00005536  00000-0  14760-2 0  9995
2 39606  81.1766  27.6855 0008346 124.9870 235.2107 14.48343146 90029

Track METEOR 2-5 DEB in real time with AllMySat

Download on the App Store